When you browse on this site, cookies collect data to enhance your experience and personalize the content and advertising you see.
Visit our Privacy Policy to learn more. By continuing to use the site, you agree to this use of cookies and data.
  • In United Kingdom
  • List of Countries
  • For 7 days
  • Water Temperature
  • Weather Map
  • Weather Widgets
  • user-avatar
    Login

    Hourly Weather Schwerin

    Today, 9 April, Thursday

    Time Temperature Precipitation Wind Pressure Humidity
    00:00 +8°C° 0 mm 2 mps 762 mmHg 82%
    01:00 +8°C° 0 mm 2 mps 762 mmHg 80%
    02:00 +7°C° 0 mm 2 mps 762 mmHg 79%
    03:00 +5°C° 0 mm 3 mps 762 mmHg 79%
    04:00 +5°C° 0 mm 3 mps 762 mmHg 78%
    05:00 +5°C° 0 mm 3 mps 762 mmHg 79%
    06:00 +5°C° 0 mm 3 mps 762 mmHg 79%
    07:00 +7°C° 0 mm 3 mps 763 mmHg 80%
    08:00 +7°C° 0 mm 4 mps 763 mmHg 76%
    09:00 +10°C° 0 mm 4 mps 763 mmHg 72%
    10:00 +12°C° 0 mm 5 mps 763 mmHg 68%
    11:00 +12°C° 0 mm 5 mps 764 mmHg 68%
    12:00 +12°C° 0 mm 5 mps 764 mmHg 67%
    13:00 +12°C° 0 mm 5 mps 764 mmHg 67%
    14:00 +12°C° 0 mm 5 mps 764 mmHg 63%
    15:00 +12°C° 0 mm 5 mps 764 mmHg 59%
    16:00 +11°C° 0 mm 4 mps 764 mmHg 55%
    17:00 +10°C° 0 mm 4 mps 764 mmHg 59%
    18:00 +8°C° 0 mm 3 mps 764 mmHg 63%
    19:00 +7°C° 0 mm 2 mps 765 mmHg 67%
    20:00 +6°C° 0 mm 2 mps 765 mmHg 70%
    21:00 +4°C° 0 mm 3 mps 765 mmHg 74%
    22:00 +4°C° 0 mm 3 mps 766 mmHg 78%
    23:00 +3°C° 0 mm 3 mps 766 mmHg 80%

    Tomorrow, 10 April, Friday

    Time Temperature Precipitation Wind Pressure Humidity
    00:00 +4°C° 0 mm 2 mps 766 mmHg 82%
    01:00 +3°C° 0 mm 2 mps 766 mmHg 83%
    02:00 +2°C° 0 mm 2 mps 766 mmHg 85%
    03:00 +2°C° 0 mm 2 mps 766 mmHg 88%
    04:00 +1°C° 0 mm 2 mps 766 mmHg 90%
    05:00 +2°C° 0 mm 2 mps 766 mmHg 87%
    06:00 +2°C° 0 mm 2 mps 767 mmHg 85%
    07:00 +3°C° 0 mm 2 mps 767 mmHg 83%
    08:00 +4°C° 0 mm 2 mps 767 mmHg 76%
    09:00 +5°C° 0 mm 3 mps 767 mmHg 70%
    10:00 +7°C° 0 mm 3 mps 767 mmHg 63%
    11:00 +8°C° 0 mm 3 mps 767 mmHg 59%
    12:00 +9°C° 0 mm 3 mps 767 mmHg 55%
    13:00 +10°C° 0 mm 3 mps 766 mmHg 52%
    14:00 +10°C° 0 mm 3 mps 766 mmHg 52%
    15:00 +12°C° 0 mm 2 mps 766 mmHg 53%
    16:00 +12°C° 0 mm 2 mps 765 mmHg 54%
    17:00 +9°C° 0 mm 2 mps 765 mmHg 61%
    18:00 +8°C° 0 mm 2 mps 765 mmHg 68%
    19:00 +7°C° 0 mm 1 mps 765 mmHg 76%
    20:00 +6°C° 0 mm 1 mps 765 mmHg 78%
    21:00 +6°C° 0 mm 1 mps 765 mmHg 80%
    22:00 +5°C° 0 mm 1 mps 766 mmHg 82%
    23:00 +5°C° 0 mm 1 mps 766 mmHg 84%

    Day after tomorrow, 11 April, Saturday

    Time Temperature Precipitation Wind Pressure Humidity
    00:00 +4°C° 0 mm 1 mps 766 mmHg 86%
    01:00 +4°C° 0 mm 1 mps 766 mmHg 88%
    02:00 +3°C° 0 mm 1 mps 766 mmHg 88%
    03:00 +3°C° 0 mm 1 mps 766 mmHg 89%
    04:00 +3°C° 0 mm 1 mps 766 mmHg 89%
    05:00 +4°C° 0 mm 1 mps 766 mmHg 85%
    06:00 +4°C° 0 mm 0 mps 765 mmHg 82%
    07:00 +4°C° 0 mm 0 mps 765 mmHg 78%
    08:00 +7°C° 0 mm 1 mps 766 mmHg 72%
    09:00 +9°C° 0 mm 1 mps 766 mmHg 66%
    10:00 +10°C° 0 mm 1 mps 766 mmHg 60%
    11:00 +11°C° 0 mm 1 mps 765 mmHg 56%
    12:00 +13°C° 0 mm 1 mps 765 mmHg 52%
    13:00 +14°C° 0 mm 1 mps 765 mmHg 48%
    14:00 +14°C° 0 mm 1 mps 764 mmHg 48%
    15:00 +15°C° 0 mm 1 mps 764 mmHg 48%
    16:00 +15°C° 0 mm 1 mps 763 mmHg 47%
    17:00 +13°C° 0 mm 1 mps 763 mmHg 54%
    18:00 +12°C° 0 mm 2 mps 763 mmHg 60%
    19:00 +9°C° 0 mm 2 mps 762 mmHg 66%
    20:00 +9°C° 0 mm 2 mps 762 mmHg 67%
    21:00 +8°C° 0 mm 2 mps 762 mmHg 68%
    22:00 +7°C° 0 mm 3 mps 762 mmHg 69%
    23:00 +7°C° 0 mm 3 mps 761 mmHg 71%

    12 April, Sunday

    Time Temperature Precipitation Wind Pressure Humidity
    00:00 +7°C° 0 mm 3 mps 761 mmHg 73%
    01:00 +5°C° 0 mm 3 mps 761 mmHg 75%
    02:00 +5°C° 0 mm 3 mps 760 mmHg 77%
    03:00 +4°C° 0 mm 3 mps 759 mmHg 79%
    04:00 +4°C° 0 mm 3 mps 759 mmHg 82%
    05:00 +5°C° 0 mm 3 mps 758 mmHg 80%
    06:00 +5°C° 0 mm 3 mps 758 mmHg 78%
    07:00 +7°C° 0 mm 3 mps 758 mmHg 76%
    08:00 +9°C° 0 mm 3 mps 757 mmHg 70%
    09:00 +11°C° 0 mm 3 mps 757 mmHg 65%
    10:00 +14°C° 0 mm 2 mps 756 mmHg 59%
    11:00 +16°C° 0 mm 2 mps 756 mmHg 56%
    12:00 +17°C° 0 mm 3 mps 756 mmHg 52%
    13:00 +19°C° 0 mm 3 mps 755 mmHg 48%
    14:00 +19°C° 0 mm 2 mps 755 mmHg 48%
    15:00 +19°C° 0 mm 2 mps 755 mmHg 47%
    16:00 +19°C° 0 mm 2 mps 754 mmHg 47%
    17:00 +17°C° 0 mm 2 mps 754 mmHg 54%
    18:00 +15°C° 0 mm 1 mps 754 mmHg 61%
    19:00 +13°C° 0 mm 1 mps 753 mmHg 68%
    20:00 +12°C° 0 mm 1 mps 753 mmHg 70%
    21:00 +11°C° 0 mm 1 mps 754 mmHg 73%
    22:00 +11°C° 0 mm 1 mps 754 mmHg 75%
    23:00 +10°C° 0 mm 1 mps 754 mmHg 76%

    13 April, Monday

    Time Temperature Precipitation Wind Pressure Humidity
    00:00 +9°C° 0 mm 2 mps 754 mmHg 78%
    01:00 +8°C° 0 mm 2 mps 754 mmHg 79%
    02:00 +8°C° 0 mm 2 mps 754 mmHg 82%
    03:00 +7°C° 0 mm 2 mps 754 mmHg 86%
    04:00 +7°C° 0 mm 2 mps 754 mmHg 89%
    05:00 +7°C° 0 mm 2 mps 754 mmHg 89%
    06:00 +8°C° 0 mm 3 mps 755 mmHg 88%
    07:00 +8°C° 0 mm 3 mps 755 mmHg 88%
    08:00 +8°C° 0 mm 4 mps 756 mmHg 84%
    09:00 +10°C° 0 mm 4 mps 756 mmHg 80%
    10:00 +10°C° 0 mm 5 mps 757 mmHg 76%
    11:00 +10°C° 0 mm 6 mps 758 mmHg 76%
    12:00 +9°C° 0 mm 6 mps 759 mmHg 76%
    13:00 +9°C° 0 mm 7 mps 759 mmHg 76%
    14:00 +8°C° 0 mm 7 mps 760 mmHg 73%
    15:00 +7°C° 0 mm 6 mps 760 mmHg 71%
    16:00 +7°C° 0 mm 6 mps 761 mmHg 69%
    17:00 +5°C° 0 mm 5 mps 762 mmHg 68%
    18:00 +4°C° 0 mm 4 mps 762 mmHg 68%
    19:00 +3°C° 0 mm 3 mps 763 mmHg 67%
    20:00 +2°C° 0 mm 3 mps 764 mmHg 67%
    21:00 +2°C° 0 mm 3 mps 764 mmHg 67%
    22:00 +1°C° 0 mm 3 mps 765 mmHg 67%
    23:00 +1°C° 0 mm 2 mps 765 mmHg 68%

    14 April, Tuesday

    Time Temperature Precipitation Wind Pressure Humidity
    00:00 +1°C° 0 mm 2 mps 766 mmHg 68%
    01:00 +1°C° 0 mm 2 mps 766 mmHg 69%
    02:00 -1°C° 0 mm 2 mps 766 mmHg 71%
    03:00 +1°C° 0 mm 1 mps 766 mmHg 73%
    04:00 +1°C° 0 mm 1 mps 766 mmHg 74%
    05:00 +2°C° 0 mm 1 mps 767 mmHg 71%
    06:00 +3°C° 0 mm 1 mps 767 mmHg 68%
    07:00 +3°C° 0 mm 0 mps 767 mmHg 65%
    08:00 +6°C° 0 mm 1 mps 767 mmHg 59%
    09:00 +7°C° 0 mm 1 mps 767 mmHg 53%
    10:00 +9°C° 0 mm 1 mps 767 mmHg 46%
    11:00 +10°C° 0 mm 1 mps 767 mmHg 45%
    12:00 +10°C° 0 mm 1 mps 767 mmHg 44%
    13:00 +11°C° 0 mm 1 mps 767 mmHg 42%
    14:00 +11°C° 0 mm 1 mps 766 mmHg 42%
    15:00 +12°C° 0 mm 1 mps 766 mmHg 42%
    16:00 +12°C° 0 mm 1 mps 765 mmHg 43%
    17:00 +10°C° 0 mm 1 mps 765 mmHg 48%
    18:00 +9°C° 0 mm 1 mps 765 mmHg 54%
    19:00 +7°C° 0 mm 1 mps 765 mmHg 60%
    20:00 +7°C° 0 mm 1 mps 764 mmHg 61%
    21:00 +6°C° 0 mm 1 mps 764 mmHg 63%
    22:00 +5°C° 0 mm 1 mps 764 mmHg 64%
    23:00 +5°C° 0 mm 1 mps 764 mmHg 67%
    Show more